TimeMST,TemperatureF,Dew PointF,Humidity,Sea Level PressureIn,VisibilityMPH,Wind Direction,Wind SpeedMPH,Gust SpeedMPH,PrecipitationIn,Events,Conditions,WindDirDegrees,DateUTC
12:16 AM,39.2,30.2,70,29.94,10.0,West,12.7,-,N/A,,Clear,260,2013-03-08 07:16:00
12:35 AM,37.4,30.2,75,29.95,10.0,WSW,12.7,-,N/A,,Clear,250,2013-03-08 07:35:00
12:56 AM,37.4,32.0,81,29.95,10.0,West,12.7,-,N/A,,Clear,260,2013-03-08 07:56:00
1:15 AM,37.4,32.0,81,29.95,10.0,WSW,6.9,-,N/A,,Clear,250,2013-03-08 08:15:00
1:35 AM,35.6,32.0,87,29.96,10.0,West,8.1,-,N/A,,Clear,270,2013-03-08 08:35:00
1:56 AM,33.8,32.0,93,29.94,10.0,West,11.5,-,N/A,,Clear,270,2013-03-08 08:56:00
2:16 AM,33.8,32.0,93,29.93,10.0,West,8.1,-,N/A,,Clear,270,2013-03-08 09:16:00
2:30 AM,33.8,32.0,93,29.93,10.0,WSW,10.4,-,N/A,,Clear,250,2013-03-08 09:30:00
2:52 AM,33.8,32.0,93,29.93,10.0,WSW,9.2,-,N/A,,Clear,250,2013-03-08 09:52:00
3:16 AM,32.0,30.2,93,29.93,10.0,WSW,6.9,-,N/A,,Clear,250,2013-03-08 10:16:00
3:36 AM,33.8,30.2,87,29.93,10.0,WSW,9.2,-,N/A,,Clear,250,2013-03-08 10:36:00
3:56 AM,33.8,32.0,93,29.93,10.0,West,11.5,-,N/A,,Clear,260,2013-03-08 10:56:00
4:16 AM,32.0,30.2,93,29.93,10.0,WSW,9.2,-,N/A,,Clear,250,2013-03-08 11:16:00
4:32 AM,33.8,32.0,93,29.93,10.0,WSW,6.9,-,N/A,,Clear,240,2013-03-08 11:32:00
4:52 AM,32.0,30.2,93,29.93,10.0,WSW,10.4,-,N/A,,Clear,250,2013-03-08 11:52:00
5:16 AM,33.8,32.0,93,29.94,10.0,West,8.1,-,N/A,,Clear,260,2013-03-08 12:16:00
5:35 AM,32.0,30.2,93,29.94,10.0,WNW,8.1,-,N/A,,Clear,290,2013-03-08 12:35:00
5:55 AM,32.0,30.2,93,29.95,10.0,WNW,4.6,-,N/A,,Clear,290,2013-03-08 12:55:00
6:13 AM,32.0,30.2,93,29.94,10.0,WNW,9.2,-,N/A,,Clear,300,2013-03-08 13:13:00
6:36 AM,32.0,30.2,93,29.93,10.0,West,9.2,-,N/A,,Clear,270,2013-03-08 13:36:00
6:53 AM,32.0,30.2,93,29.94,7.0,West,8.1,-,N/A,,Clear,280,2013-03-08 13:53:00
7:52 AM,32.0,30.2,93,29.93,3.0,West,10.4,-,N/A,,Mostly Cloudy,270,2013-03-08 14:52:00
9:55 AM,33.8,32.0,93,29.93,2.0,West,10.4,-,N/A,,Overcast,270,2013-03-08 16:55:00
10:55 AM,39.2,32.0,75,29.89,7.0,West,6.9,-,N/A,,Mostly Cloudy,280,2013-03-08 17:55:00
11:55 AM,39.2,32.0,75,29.87,7.0,West,5.8,-,N/A,,Mostly Cloudy,270,2013-03-08 18:55:00
12:48 PM,41.0,33.8,76,29.84,7.0,Calm,Calm,-,N/A,,Mostly Cloudy,0,2013-03-08 19:48:00
1:55 PM,44.6,35.6,71,29.78,7.0,NNW,4.6,-,N/A,,Mostly Cloudy,340,2013-03-08 20:55:00
2:47 PM,44.6,33.8,66,29.77,10.0,NW,4.6,-,N/A,,Mostly Cloudy,320,2013-03-08 21:47:00
3:58 PM,42.8,35.6,76,29.77,10.0,NE,3.5,-,N/A,,Mostly Cloudy,50,2013-03-08 22:58:00
9:16 PM,35.6,33.8,93,29.73,10.0,SW,3.5,-,N/A,,Scattered Clouds,220,2013-03-09 04:16:00
9:36 PM,35.6,33.8,93,29.73,10.0,SW,4.6,-,N/A,,Mostly Cloudy,220,2013-03-09 04:36:00
9:55 PM,37.4,33.8,87,29.73,10.0,SSW,3.5,-,N/A,,Overcast,210,2013-03-09 04:55:00
10:16 PM,33.8,32.0,93,29.72,7.0,SW,4.6,-,N/A,,Scattered Clouds,220,2013-03-09 05:16:00
10:36 PM,33.8,32.0,93,29.70,7.0,WSW,4.6,-,N/A,,Clear,240,2013-03-09 05:36:00
10:53 PM,33.8,32.0,93,29.70,7.0,WSW,5.8,-,N/A,,Scattered Clouds,240,2013-03-09 05:53:00
11:16 PM,33.8,32.0,93,29.69,5.0,WSW,3.5,-,N/A,,Scattered Clouds,240,2013-03-09 06:16:00
11:36 PM,33.8,32.0,93,29.67,7.0,WSW,3.5,-,N/A,,Mostly Cloudy,250,2013-03-09 06:36:00
11:56 PM,32.0,32.0,100,29.66,4.0,West,3.5,-,N/A,,Scattered Clouds,260,2013-03-09 06:56:00